Regional Weather Roundup
Issued by NWS Sterling, VA

Home | Current Version | Previous Version | Text Only | Print | Product List | Glossary Off
Versions: 1 2 3 4 5 6 7 8 9 10 11 12 13 14 15 16 17 18 19 20 21 22 23 24 25 26 27 28 29 30 31 32 33 34 35 36 37 38 39 40 41 42 43 44 45 46 47 48 49 50

000
ASUS41 KLWX 201610
RWRLWX

REGIONAL WEATHER ROUNDUP
NATIONAL WEATHER SERVICE BALTIMORE MD/WASHINGTON DC
1200 PM EDT SAT SEP 20 2014

Note: "FAIR" indicates few or no clouds below 12,000 feet
with no significant weather and/or obstructions to visibility.
 TC=TEMPERATURE CELSIUS

 * =Non NWS site. Station does not report precipitation (e.g. rain,
    snow, etc.), thunder, or fog.

DCZ001-MDZ009-015-VAZ040>042-051-053>054-201700-
WASHINGTON METRO

CITY           SKY/WX    TMP DP  RH WIND       PRES   REMARKS
WASHINGTON NAT MOSUNNY   77  58  51 S7        30.23F
DULLES         MOSUNNY   73  57  57 VRB7      30.23F
ANDREWS AFB    MOSUNNY   73  61  65 VRB3      30.23F
QUANTICO       SUNNY     73  63  70 SW6       30.24F
COLLEGE PARK*  SUNNY     77  57  50 SE5       30.22F
LEESBURG*      SUNNY     75  61  60 S8        30.23F
MANASSAS*      SUNNY     75  63  64 S5        30.23F
GAITHERSBURG*  MOSUNNY   73  61  64 SE5       30.27F

$$

MDZ006>007-011-014-201700-
BALTIMORE METRO

CITY           SKY/WX    TMP DP  RH WIND       PRES   REMARKS
BWI AIRPORT    PTSUNNY   75  59  57 VRB6      30.22F
MD SCIENCE CTR   N/A     74  61  63 MISG      30.23F
MARTIN STATE   PTSUNNY   75  64  69 SE7       30.25F
ANNAPOLIS      PTSUNNY   72  61  68 SE12      30.23F
FORT MEADE*    MOSUNNY   72  59  64 S6        30.24F

$$

MDZ012-015-019>023-201700-
MARYLAND EASTERN SHORE

CITY           SKY/WX    TMP DP  RH WIND       PRES   REMARKS
OCEAN CITY     CLOUDY    74  65  73 E8        30.24S
SALISBURY      CLOUDY    77  64  64 E8        30.23F
BAY BRIDGE AP*   N/A     73  55  53 SE9       30.23F
CAMBRIDGE*     MOSUNNY   77  59  53 SE5       30.22F

$$

MDZ017>025-201700-
SOUTHERN MARYLAND

CITY           SKY/WX    TMP DP  RH WIND       PRES   REMARKS
PATUXENT RIVER MOSUNNY   74  63  68 E8        30.23F
ST INIGOES     MOSUNNY   72  60  66 VRB6      30.22F
LEONARDTOWN*   MOSUNNY   75  61  60 NE3       30.24F

$$

MDZ003>005-201700-
NORTH CENTRAL MARYLAND

CITY           SKY/WX    TMP DP  RH WIND       PRES   REMARKS
FREDERICK*     SUNNY     79  61  53 SW8       30.25F
HAGERSTOWN APT SUNNY     72  59  63 S10       30.20F
WESTMINSTER*   MOSUNNY   73  61  64 S6        30.23F

$$

MDZ501>502-201700-
WESTERN MARYLAND

CITY           SKY/WX    TMP DP  RH WIND       PRES   REMARKS
OAKLAND*       SUNNY     70  54  56 S7        30.23F
CUMBERLAND*    SUNNY     79  54  41 S5        30.22F

$$

VAZ025>031-201700-
SHENANDOAH VALLEY

CITY           SKY/WX    TMP DP  RH WIND       PRES   REMARKS
WINCHESTER*    MOSUNNY   73  55  53 SE8       30.20F
STAUNTON*      SUNNY     73  52  48 SE7       30.24F

$$

WVZ021-048>050-054>055-201700-
EASTERN WEST VIRGINIA PANHANDLE

CITY           SKY/WX    TMP DP  RH WIND       PRES   REMARKS
MARTINSBURG    SUNNY     75  55  49 SE12      30.21F
PETERSBURG*    SUNNY     78  52  40 S9        30.18F

$$

VAZ036>039-050-201700-
CENTRAL FOOTHILLS

CITY           SKY/WX    TMP DP  RH WIND       PRES   REMARKS
CHARLOTTESVILL SUNNY     72  57  59 VRB5      30.22F
ORANGE*        SUNNY     73  54  49 CALM      30.23F

$$

VAZ055>057-201700-
NORTH AND CENTRAL PIEDMONT

CITY           SKY/WX    TMP DP  RH WIND       PRES   REMARKS
FREDERICKSBRG* SUNNY     77  58  51 SE7       30.22F
STAFFORD*      SUNNY     75  59  56 SE5       30.27F

$$

NCZ024-NYZ072-PAZ021-071-VAZ022-071-201700-
OTHER REGIONAL OBSERVATIONS

CITY           SKY/WX    TMP DP  RH WIND       PRES   REMARKS
NEW YORK CITY  PTSUNNY   71  55  56 VRB6      30.28F
PHILADELPHIA   MOSUNNY   75  58  55 S9        30.25F
PITTSBURGH     PTSUNNY   72  58  61 SW15      30.11F
ROANOKE        MOSUNNY   71  56  58 SE5       30.25F
RICHMOND       MOSUNNY   79  51  37 E5        30.21F
RALEIGH        MOSUNNY   75  59  57 E7        30.20S

$$

ANZ530>537-201700-
MARINE OBSERVATIONS

STATION/POSITION TIME  TEMP    WIND        PRES
                       AIR SEA DIR/SP/G
                 (UTC) (F)     (DEG/KT/KT) (MB)
THOMAS PT LIGHT  1600   71 74  190/  7/  8 1024.7F
BALT KEY BRIDGE  1600   70     110/ 10/ 11 1023.6F
COVE POINT       1600   71     160/  6/  7 1023.7F
LEWISETTA        1600   70 73  100/  8/  9 1023.3F
SOLOMONS ISLAND  1600      75                N/A
PINEY POINT      1600          170/  7/  9   N/A

$$




USA.gov is the U.S. government's official web portal to all federal, state and local government web resources and services.